Regional Weather Roundup
Issued by NWS

Home | Current Version | Previous Version | Graphics & Text | Print | Product List | Glossary On
Versions: 1 2 3 4 5 6 7 8 9 10 11 12 13 14 15 16 17 18 19 20 21 22 23 24 25 26 27 28 29 30 31 32 33 34 35 36 37 38 39 40 41 42 43 44 45 46 47 48 49 50
000
ASUS43 KIND 220309
RWRIN

WEATHER ROUNDUP FOR INDIANA
NATIONAL WEATHER SERVICE INDIANAPOLIS IN
1100 PM EDT SUN SEP 21 2014

NOTE: "FAIR" INDICATES FEW OR NO CLOUDS BELOW 12,000 FEET WITH NO
SIGNIFICANT WEATHER AND/OR OBSTRUCTIONS TO VISIBILITY.

* - STATION DOES NOT REPORT WEATHER SUCH AS PRECIPITATION OR FOG.

+ - STATION NOT QUALITY CONTROLLED BY THE NATIONAL WEATHER SERVICE.
    USE DATA WITH CAUTION...ESPECIALLY DEWPOINT AND RELATIVE
    HUMIDITY OBSERVATIONS.

INZ001>003-010>013-019-020-220400-
NORTHWEST INDIANA

CITY           SKY/WX    TMP DP  RH WIND       PRES   REMARKS
GARY /AIRPORT/ CLEAR     58  45  61 N13G21    30.12S
KNOX *+        CLEAR     51  47  86 NW5       30.09R
LA PORTE +     PTCLDY    53  48  82 N10       30.10S
MICHIGAN CITY+ MOCLDY    54  45  71 N9G16     30.11R
MONTICELLO +   CLOUDY    55  51  86 N8        30.10R
RENSSELAER +   PTCLDY    54  52  94 CALM      30.12R
VALPARAISO     PTCLDY    54  48  80 N5        30.11R

$$

LMZ046-743>745-220400-
SOUTHERN LAKE MICHIGAN

STATION/POSITION TIME  TEMP WIND        PRES
                       AIR  DIR/SP/G
                 (UTC) (F)  (DEG/KT/KT) (MB)
MICHIGAN CITY    0300   57  350/ 21/ 26   N/A

$$

INZ004-005-014>016-021>024-220400-
NORTH CENTRAL INDIANA

CITY           SKY/WX    TMP DP  RH WIND       PRES   REMARKS
GOSHEN         CLOUDY   N/A N/A N/A N13       30.08R
LOGANSPORT +   CLOUDY    54  46  76 NW7       30.10R
PERU/GRISSOM   MOCLDY    55  53  92 NW8       30.08R
ROCHESTER +    PTCLDY    55  50  82 NW10G16   30.09R
SOUTH BEND     MOCLDY    54  46  74 N12       30.10R
WARSAW +       MOCLDY    52  46  82 NW6       30.08R

$OLIS   PTCLDY    57  49  74 N7        30.07R
-EAGLE CREEK   PTCLDY    58  49  72 N7        30.08R
KOKOMO *+      MOCLDY    55  46  71 NW6       30.09R
MARION +       CLEAR     53  47  80 N6        30.08R
MT COMFORT *+  CLOUDY    55  48  76 NW6       30.08R
SHELBYVILLE    CLEAR     54  48  80 N7        30.07R
ZIONSVILLE +   MOCLDY    55  49  81 CALM      30.09R

$$

INZ033-034-041-042-049-050-058-059-220400-
EAST CENTRAL INDIANA

CITY           SKY/WX    TMP DP  RH WIND       PRES   REMARKS
MUNCIE         CLEAR     51  47  86 NW5       30.07R

$$

INZ060-061-067>069-081>083-085>088-220400-
SOUTHWEST INDIANA

CITY           SKY/WX    TMP DP  RH WIND       PRES   REMARKS
EVANSVILLE     CLEAR     63  50  62 N5        30.09R
WASHINGTON +   CLEAR     53  51  92 NW6       30.08R

$$
$

INZ006>009-017-018-025>027-220400-
NORTHEAST INDIANA

CITY           SKY/WX    TMP DP  RH WIND       PRES   REMARKS
ANGOLA *+      PTCLDY    52  39  62 NW16      30.04R
FORT WAYNE     PTCLDY    52  47  83 NW9       30.06R
HUNTINGTON +   PTCLDY    52  47  84 CALM      30.07R

$$

INZ028-029-035-036-043>045-051>053-220400-
WEST CENTRAL INDIANA

CITY           SKY/WX    TMP DP  RH WIND       PRES   REMARKS
GREENCASTLE +  MOCLDY    57  50  77 CALM      30.09R
LAFAYETTE      CLOUDY    57  50  77 N7        30.10R
TERRE HAUTE    MOCLDY    58  50  75 NW6       30.10R

$$

INZ030>032-037>040-046>048-054>057-064-065-220400-
CENTRAL INDIANA

CITY           SKY/WX    TMP DP  RH WIND       PRES   REMARKS
CP ATTERBURY + CLEAR     54  50  87 CALM      30.08R
FRANKFORT +    MOCLDY    55  51  85 N6        30.09S
INDIANAP
INZ062-063-066-070>080-084-089>092-220400-
SOUTH CENTRAL AND SOUTHEAST INDIANA

CITY           SKY/WX    TMP DP  RH WIND       PRES   REMARKS
BLOOMINGTON    CLEAR     55  49  80 CALM      30.08R
SEYMOUR +      CLEAR     59  50  72 N6        30.07

$$



USA.gov is the U.S. government's official web portal to all federal, state and local government web resources and services.